Location: Newark
(25.7507°S, 31.4676°E)
Time: 16:56:47
(UTC+00:00)

Hubble Space Telescope - Pass Details

Date: 20 January 2020
Orbit: 536 x 540 km, 28.5° (Epoch: 16 February)

Event Time Altitude Azimuth Distance (km) Brightness Sun altitude
Exits shadow 02:18:09 20° 280° (W) 1,289 2.1 -13.2°
Maximum altitude 02:20:33 38° 338° (NNW) 823 1.3 -12.8°
Drops below altitude 10° 02:24:24 10° 47° (NE) 1,784 3.6 -12.0°
Sets 02:26:46 0° 54° (NE) 2,671 4.7 -11.6°
